Hourly Data Report for August 01, 2004

SHERBROOKE A
QUEBEC

45°26'00.000" N
71°41'00.000" W
241.40 m
7028124
71610
YSC

Download Data

Hourly Data (August 2004)
Hourly Data Report for August 1, 2004
TIME
LST
Temp Definition
°C
Dew Point Definition
°C
Rel Hum Definition
%
Precip. Amount Definition
mm

Wind Dir Definition
10's deg

Wind Spd Definition
km/h
Visibility Definition
km
Stn Press Definition
kPa
Hmdx Definition


Wind Chill Definition


Weather Definition


00:00 21.1 20.2 95   20 4 4.0 98.45 29   Rain
01:00 20.9 20.0 95   19 6 9.7 98.45 28   Rain
02:00 20.9 19.7 93   22 9 15.0 98.45 28    
03:00 20.8 19.5 92   23 7 15.0 98.45 28    
04:00 20.6 19.5 93   21 6 15.0 98.47 28    
05:00 19.8 18.9 95   25 15 0.8 98.52     Heavy Rain
06:00 19.5 18.8 96   26 6 1.6 98.58     Moderate Rain
07:00 20.8 20.0 95   21 6 16.1 98.61 28   Cloudy
08:00 21.5 20.5 94   26 6 16.1 98.64 29   Cloudy
09:00 22.6 20.9 90   23 9 16.1 98.62 31   Mostly Cloudy
10:00 23.0 19.5 81   27 15 19.3 98.65 30   Mostly Cloudy
11:00 23.0 18.0 73   25 22 19.3 98.61 29   Mostly Cloudy
12:00 25.8 18.2 63   24 19 19.3 98.61 32   Mostly Cloudy
13:00 25.7 17.3 60   28 32 24.1 98.60 31   Mostly Cloudy
14:00 26.2 16.2 54   27 30 24.1 98.58 31   Mainly Clear
15:00 26.1 16.7 56   27 30 24.1 98.58 31   Mainly Clear
16:00 25.4 16.1 56   26 22 24.1 98.58 30   Mainly Clear
17:00 24.4 16.0 59   29 20 15.0 98.58 29    
18:00 23.6 15.5 60   27 11 15.0 98.59 28    
19:00 21.9 14.8 64   25 11 15.0 98.61 26    
20:00 21.6 13.7 61   23 11 15.0 98.65 25    
21:00 19.7 14.4 71   23 7 15.0 98.66      
22:00 15.7 13.8 88   22 6 15.0 98.68      
23:00 14.8 13.6 93   21 6 15.0 98.68      

Notes on Data Quality.

Legend

  • E = Estimated
  • M = Missing
  • NA = Not Available*
  • [empty] = Indicates an unobserved value
Date modified: